Theta_e
353 354 359 362 363 364 361 359 361 360 362 358 360 359 358 358 359 359 359 359 355 354 353 351 354 354 351 351 349 355 355 356 357 354 356 357 359 359 359 360 360 361 361 363 364 365 365 364 365 365 366 366 367 367 368 368 368 368 368 368 369 370 370 370 370 370 370 369 369 369 369 368 367 367 366 366 366 365 365 365 365 364 363 362 361
357 360 361 363 363 363 362 361 359 361 360 360 359 359 359 359 359 361 357 359 357 356 356 351 348 349 351 351 350 350 356 354 356 355 359 359 361 359 358 361 361 361 363 364 365 366 366 365 365 365 367 367 367 368 368 368 368 368 369 370 370 371 371 371 371 370 370 370 370 370 370 370 369 368 367 367 367 367 366 366 365 365 364 362 362
359 363 362 363 363 364 362 363 362 360 363 360 362 361 359 358 358 359 361 360 357 355 356 353 353 349 351 349 350 353 353 356 352 352 353 359 361 363 360 362 362 362 364 365 366 368 369 369 368 369 369 370 370 371 371 371 370 370 371 370 371 371 371 371 371 372 371 370 371 371 370 371 370 369 369 368 368 367 367 367 366 365 364 363 362
366 365 364 363 362 361 363 364 362 362 364 361 361 363 363 362 362 364 363 362 358 355 357 351 351 349 351 348 351 351 351 353 349 351 352 357 361 361 362 363 362 363 362 363 364 366 368 369 370 370 370 371 370 370 371 371 371 371 371 370 370 371 371 371 371 371 372 372 371 371 371 371 371 370 370 369 369 368 368 368 367 367 366 365 363
364 366 366 362 363 363 362 364 364 365 362 362 362 363 363 362 360 361 361 360 355 355 352 352 350 351 350 349 350 350 353 353 354 351 350 354 357 356 360 360 364 364 363 364 363 363 364 366 369 370 370 370 370 372 372 372 372 372 371 372 372 372 371 370 370 371 372 372 372 372 371 371 372 371 370 370 370 369 369 369 368 368 367 366 366
367 366 364 361 363 365 364 362 365 364 364 364 360 360 361 361 359 359 356 357 352 354 351 350 348 349 350 349 351 353 351 349 349 351 351 351 354 359 357 358 359 363 364 367 365 365 365 366 367 368 368 369 369 369 371 374 373 372 372 371 372 373 372 371 371 372 372 372 372 372 372 371 371 371 369 368 370 370 369 368 368 368 367 367 367
369 367 365 363 362 362 363 363 365 365 362 362 362 362 363 362 359 359 358 353 352 354 352 351 348 348 351 353 350 351 353 348 350 351 351 353 356 354 359 356 357 360 360 358 371 364 366 368 366 367 367 368 371 374 374 374 375 374 373 372 372 373 373 373 373 372 371 371 371 371 372 372 371 371 371 371 369 369 369 369 368 368 367 367 366
370 368 364 364 361 362 363 366 366 364 364 363 364 363 362 361 363 360 354 351 354 351 354 351 350 348 349 352 349 352 350 351 350 347 349 354 355 355 356 358 360 358 357 359 359 369 366 368 367 367 368 370 370 373 373 374 374 373 372 372 372 372 373 373 373 372 372 372 372 372 373 373 373 372 372 371 371 369 369 368 368 367 367 367 365
369 368 368 364 362 364 363 364 365 364 362 360 361 362 364 356 363 363 361 357 351 347 350 352 348 348 348 344 342 352 351 353 351 351 349 354 354 349 351 355 357 358 363 356 359 361 370 366 369 367 368 370 372 373 372 373 371 370 371 372 373 373 373 374 372 371 372 373 374 374 374 375 373 371 371 370 370 369 369 368 367 366 366 365 365
368 368 366 365 365 365 366 367 365 364 362 360 362 363 365 362 361 363 362 359 352 351 349 349 346 345 348 344 351 347 351 352 347 353 351 351 345 344 352 352 352 351 347 349 352 355 358 369 365 368 368 369 369 369 371 371 370 370 371 372 372 373 373 372 372 371 372 371 372 373 374 375 374 372 372 371 371 369 368 367 367 366 364 364 363
368 367 368 365 364 366 367 367 366 364 364 363 363 363 363 361 361 362 366 360 355 353 351 352 346 346 345 346 343 348 354 351 355 350 349 349 349 354 349 352 352 353 350 353 351 356 357 357 357 362 366 368 375 371 372 371 371 374 373 373 373 370 371 372 371 371 371 371 372 372 373 373 373 372 371 371 370 368 367 367 366 364 364 363 363
368 368 370 367 365 365 367 368 366 364 363 363 362 364 362 363 358 358 360 359 357 355 353 352 349 349 348 349 350 351 352 353 353 351 353 351 346 349 350 350 353 354 351 354 351 351 357 358 358 357 357 362 367 371 371 372 371 373 372 373 371 371 372 372 371 371 371 372 373 371 370 370 371 372 371 370 369 368 367 367 365 363 362 362 360
368 369 367 364 366 366 367 367 368 366 365 365 363 364 366 365 362 365 357 357 354 353 350 351 348 346 349 347 350 349 349 350 348 349 348 348 347 350 350 353 353 353 356 350 347 349 353 358 357 361 360 359 364 370 369 370 370 369 370 370 371 371 373 371 372 372 372 372 372 369 368 368 369 370 369 369 368 368 368 366 364 362 361 362 359
370 369 369 367 364 364 366 367 366 367 365 366 366 366 366 363 361 358 359 352 352 351 348 354 346 343 344 344 346 348 346 348 347 347 348 350 349 351 354 348 348 351 354 355 358 355 353 357 361 357 361 363 362 363 367 367 369 366 369 368 370 369 370 371 372 373 373 372 371 369 368 368 369 370 370 369 368 368 367 365 363 361 361 361 357
370 369 368 367 365 365 367 367 368 367 364 363 365 366 363 361 361 353 352 355 352 352 355 352 345 346 347 348 340 342 343 346 346 346 346 349 348 346 340 345 349 350 349 353 358 360 353 353 356 360 359 361 362 362 363 366 367 371 368 367 367 368 369 370 371 372 373 373 369 368 368 368 369 370 370 369 369 368 366 364 362 360 361 358 355
367 367 367 368 368 368 367 368 369 367 364 364 365 363 364 362 361 358 356 352 350 352 354 355 351 346 346 340 343 339 337 344 345 347 347 347 345 347 346 344 350 349 350 351 352 356 359 360 354 357 361 365 368 363 362 362 364 373 378 374 367 364 367 369 371 371 371 372 370 367 367 368 369 370 370 370 369 367 363 364 362 360 361 357 353
367 368 368 368 369 370 369 367 368 365 363 365 363 361 361 364 364 364 357 352 349 351 354 354 355 355 348 346 343 342 339 343 340 341 344 345 347 347 347 346 349 351 347 352 353 356 352 349 359 360 363 363 365 365 363 364 366 368 373 375 367 366 366 369 369 370 371 371 370 368 367 368 369 369 370 369 369 365 363 363 362 361 361 356 350
368 369 369 368 369 368 369 369 366 366 365 366 364 361 363 363 366 362 360 362 356 352 351 357 353 359 356 352 349 342 342 345 343 340 348 346 347 348 350 349 350 351 355 353 353 352 358 354 355 356 360 361 363 367 362 364 365 365 368 371 366 368 368 367 366 367 368 369 368 368 368 369 369 369 369 369 366 364 363 363 362 361 358 353 348
366 369 368 371 371 369 370 368 366 366 367 366 364 361 360 364 363 364 363 362 363 356 351 349 355 358 352 352 352 354 351 347 342 344 343 348 349 347 348 350 350 350 350 351 353 354 358 358 355 356 359 360 363 361 364 365 367 373 373 363 366 367 366 364 364 363 366 366 366 366 369 370 370 369 368 368 366 362 362 362 362 362 356 351 348
367 368 371 369 370 371 370 370 367 367 363 365 363 363 364 367 366 367 366 366 363 358 354 353 351 354 353 351 354 353 351 351 351 344 343 342 344 347 346 349 350 351 352 351 352 354 354 357 357 354 360 362 363 363 363 367 368 371 369 360 365 366 365 361 360 362 363 364 366 366 368 368 369 368 369 367 364 362 363 363 363 362 355 349 347
365 367 368 369 367 371 373 370 369 367 364 365 364 364 365 364 367 366 366 365 365 363 361 358 353 353 355 358 354 354 351 351 350 351 346 341 340 340 343 349 350 352 354 353 354 355 355 357 356 359 365 367 365 365 364 368 363 369 368 362 363 364 363 361 359 362 361 362 365 367 366 367 367 368 367 367 365 363 362 363 363 363 355 349 348
364 365 368 367 368 371 371 369 365 365 365 368 366 363 365 365 364 366 367 365 364 363 362 361 359 358 357 357 355 352 352 352 350 348 347 350 342 341 343 343 343 349 355 354 353 356 356 356 357 359 359 365 365 365 367 370 367 361 365 360 360 362 363 361 360 362 359 360 362 364 365 365 366 366 366 365 365 363 361 363 363 362 355 350 348
362 366 365 365 367 370 368 367 368 369 366 368 367 363 362 363 364 367 368 365 364 364 361 362 362 360 357 358 352 350 351 345 350 349 346 345 344 342 342 345 344 343 354 354 356 357 356 359 357 359 362 366 367 366 369 368 367 366 365 359 359 363 361 362 360 359 358 357 359 361 362 363 363 364 364 363 363 363 361 363 364 362 356 351 349
362 362 362 361 368 369 370 369 367 368 368 368 367 366 364 364 364 366 367 368 366 365 361 359 357 361 358 355 354 353 354 350 350 352 350 349 345 344 343 349 349 348 351 357 358 356 357 358 359 361 363 364 367 366 367 369 369 360 369 359 359 358 360 361 361 359 356 355 356 358 359 361 361 362 361 361 362 362 361 363 364 363 357 352 350
363 360 359 363 368 369 369 368 369 368 371 371 370 368 370 365 365 363 365 365 366 366 362 361 361 358 355 357 354 353 353 356 355 352 353 352 350 346 348 348 345 346 353 353 353 354 356 356 360 360 362 364 363 364 363 364 363 364 366 364 355 359 357 359 360 357 355 354 355 356 357 358 359 359 359 360 362 362 360 362 364 363 359 354 352
359 359 359 362 364 367 370 369 372 370 370 372 372 371 371 369 368 366 363 368 367 366 365 362 362 360 361 357 355 355 355 357 356 353 354 349 349 348 350 349 349 345 350 355 358 349 351 356 358 363 363 362 364 363 362 361 362 364 365 367 362 355 356 358 358 358 356 354 355 355 356 357 358 359 360 361 361 362 361 360 364 363 361 357 353
360 364 364 364 367 369 369 369 370 372 371 370 365 370 373 371 369 369 369 365 367 367 364 362 356 359 361 359 359 355 355 357 352 352 354 352 353 351 352 348 346 346 347 350 352 351 350 354 355 357 365 367 367 366 359 361 362 364 367 366 365 351 355 354 356 356 355 354 355 355 355 355 356 357 359 360 360 360 360 361 362 364 362 358 354
366 367 364 367 367 368 368 367 371 370 371 370 368 368 373 369 370 370 368 363 365 367 367 363 361 362 362 363 360 356 358 357 357 355 355 356 355 354 356 355 351 346 348 346 347 347 351 350 354 360 364 367 364 364 359 362 360 365 370 365 363 363 353 353 353 353 352 352 352 353 353 354 355 356 357 357 358 358 360 360 362 364 362 357 354
363 365 365 368 369 368 367 364 368 372 370 369 368 370 372 368 365 371 368 364 367 368 365 364 365 360 359 360 361 360 360 362 361 357 359 362 358 358 358 355 356 352 347 347 349 347 350 350 347 363 367 365 366 361 361 361 363 360 358 363 361 365 355 351 351 351 350 350 350 350 353 353 353 353 354 355 355 356 358 360 362 364 362 357 353
362 361 365 366 368 367 368 368 368 368 369 368 368 369 372 368 367 369 366 369 367 367 366 364 364 363 361 359 360 359 362 361 359 359 362 365 361 360 359 359 360 355 353 349 351 353 351 352 352 358 370 366 362 357 357 360 361 358 359 361 359 364 352 350 350 349 349 348 348 348 350 350 350 350 350 350 351 353 357 359 362 363 363 358 355
366 366 366 364 366 367 369 368 368 367 368 367 368 370 371 367 365 364 366 368 367 366 368 364 362 361 363 360 362 360 362 361 362 359 361 363 362 361 360 361 361 361 358 356 350 356 355 353 353 357 357 363 360 355 352 353 359 359 361 363 364 358 353 358 350 348 347 346 345 345 346 346 345 345 346 347 348 350 355 359 363 364 363 359 357
364 364 364 363 365 364 362 362 362 364 365 363 364 367 369 368 365 361 363 369 366 367 365 365 360 361 365 363 364 364 363 362 362 360 361 364 364 361 362 362 363 363 362 358 353 353 359 354 354 357 358 360 362 358 357 352 363 359 364 365 366 361 367 365 352 350 348 346 345 344 343 342 340 341 343 344 346 348 352 358 363 363 362 360 357
364 362 363 365 366 364 362 364 362 364 367 366 365 367 368 370 368 366 367 369 369 364 366 366 364 363 364 367 366 365 367 363 361 359 359 360 363 362 363 361 360 362 361 361 358 355 360 362 358 355 358 361 357 360 356 352 353 357 360 361 363 359 360 362 362 349 347 345 344 343 342 340 338 339 340 342 343 344 346 350 358 360 360 359 357
365 362 364 363 364 364 364 364 366 364 367 369 365 365 367 366 366 362 362 368 370 364 363 365 366 360 363 365 366 363 365 364 363 358 358 357 357 356 357 357 358 359 363 360 358 356 355 360 356 359 356 361 357 362 357 355 356 361 358 358 355 355 359 364 366 358 345 347 344 342 341 339 337 338 338 339 340 340 340 340 343 353 358 359 352
364 363 362 362 363 367 366 365 368 367 368 367 366 366 365 366 366 365 361 362 364 363 363 366 364 365 362 363 363 363 360 360 362 361 360 359 359 359 358 358 358 358 360 363 362 358 356 355 361 356 356 359 360 358 358 357 360 360 361 357 352 351 353 361 363 360 347 346 344 343 340 339 338 337 337 336 337 336 336 334 335 340 354 351 342
359 363 363 363 365 368 366 367 368 368 367 366 364 364 365 366 366 366 367 366 365 365 364 364 362 362 361 362 362 363 363 362 363 363 363 362 361 362 361 363 364 363 365 363 365 364 360 356 360 358 358 360 360 360 355 356 356 357 360 359 355 355 355 356 361 361 351 345 344 342 341 339 337 337 335 335 333 332 331 332 333 336 343 344 340
360 362 363 365 366 369 363 364 366 367 366 366 365 363 363 365 366 365 366 367 367 367 365 365 365 366 362 361 362 362 363 361 362 360 360 361 361 361 361 362 361 362 362 363 363 364 361 359 359 361 365 364 363 362 361 355 354 357 362 361 354 356 359 356 355 359 350 344 344 341 340 339 339 337 336 334 333 331 331 331 329 329 333 335 335
361 360 362 363 363 366 366 364 364 366 367 367 367 366 363 362 362 364 365 366 364 365 365 364 364 365 364 364 362 363 362 360 360 361 363 362 363 360 360 362 362 363 363 365 364 363 363 361 360 357 362 358 361 361 361 361 354 351 353 354 355 359 360 356 354 354 357 357 354 346 341 340 336 334 337 335 333 331 329 329 329 328 327 325 326
359 358 359 362 364 364 366 365 362 363 365 363 367 369 365 364 363 363 361 363 363 362 363 363 362 362 362 362 363 364 364 364 362 362 362 362 360 362 364 364 364 363 361 360 360 361 361 360 357 358 356 357 360 357 359 364 362 360 356 353 352 353 359 359 357 355 356 355 350 347 348 347 343 344 334 333 333 333 330 328 329 327 327 325 322
358 358 358 358 361 363 363 363 364 365 365 364 366 367 367 364 361 361 361 361 359 359 361 363 362 361 363 362 361 361 362 364 366 366 366 363 364 363 363 364 363 363 360 359 357 356 358 355 354 358 354 353 358 359 361 363 360 362 363 353 349 349 351 359 360 356 356 357 351 355 346 344 342 339 336 336 334 332 332 333 332 330 327 325 326
357 358 358 358 358 358 360 361 363 361 358 358 359 361 363 362 363 358 357 357 356 357 355 358 360 362 364 363 362 362 364 363 364 367 367 367 360 360 362 362 365 364 363 361 357 357 354 355 354 354 350 352 356 356 356 354 355 354 358 355 353 352 350 350 361 362 356 356 353 347 351 352 354 356 351 347 343 341 337 334 335 332 327 325 326
362 362 362 362 360 358 358 360 360 358 357 358 355 353 356 362 360 360 359 360 358 358 360 358 355 358 358 362 363 365 364 366 368 369 365 363 363 362 363 364 365 365 366 359 360 357 356 355 352 356 354 355 356 353 355 357 357 360 357 359 353 350 350 348 355 358 357 354 353 350 350 353 352 355 349 344 341 340 338 335 331 329 326 324 325
362 365 362 361 360 358 357 357 357 355 354 346 338 337 340 345 358 361 361 363 366 365 365 364 360 361 358 358 358 358 359 365 369 365 365 367 366 366 364 364 365 362 361 361 360 358 354 348 354 357 355 355 354 356 358 355 352 353 355 357 352 351 350 346 343 357 359 358 356 354 352 353 358 353 350 341 337 337 335 331 327 326 324 324 324
366 364 361 363 365 362 359 358 357 354 348 333 330 333 336 337 345 358 358 357 358 360 361 363 362 361 359 358 357 355 356 358 364 363 368 368 363 360 359 361 364 367 364 361 361 354 355 355 355 357 356 353 351 350 352 355 355 354 357 357 356 353 351 347 348 349 359 358 356 351 348 354 355 351 347 339 335 332 330 329 326 324 323 323 323
366 365 365 361 358 360 360 361 358 356 347 328 329 330 332 333 336 351 358 360 358 357 358 360 363 365 366 365 363 361 362 364 364 367 370 371 362 357 358 360 362 362 351 350 354 363 358 351 355 358 360 358 354 352 352 355 361 356 356 354 356 355 354 351 348 350 356 358 356 350 345 349 352 351 345 341 338 337 332 328 325 325 323 323 322
364 364 363 362 364 364 364 363 363 353 344 328 325 326 328 329 333 342 360 362 361 360 361 361 360 361 364 365 365 363 365 366 367 370 371 368 367 367 366 365 364 364 363 355 352 354 359 360 356 355 355 360 358 356 356 358 356 354 353 352 355 354 353 352 358 356 358 353 352 348 344 346 350 346 347 341 336 334 334 327 324 324 323 322 322
360 358 359 363 364 365 364 362 360 345 335 319 322 322 323 325 329 342 360 361 361 361 362 362 364 364 365 365 366 366 366 366 366 367 366 364 364 363 362 360 360 360 360 360 366 366 356 353 352 352 351 353 356 362 360 357 352 353 351 351 355 355 354 358 357 357 357 355 352 347 343 343 346 345 346 343 336 335 333 327 325 325 323 322 321
358 360 357 360 364 363 362 361 359 347 332 316 319 319 320 322 325 352 359 360 360 360 360 362 358 358 363 364 364 364 364 364 361 354 359 362 360 358 358 359 360 360 358 365 339 346 353 347 344 344 344 346 341 357 359 357 355 358 357 354 357 355 353 352 350 349 349 351 349 345 340 342 348 342 343 345 345 340 335 332 326 326 324 323 322
357 357 355 359 362 361 360 359 357 348 337 319 315 315 317 317 334 353 357 356 357 358 357 358 356 356 358 361 361 357 359 360 340 328 336 351 357 355 356 356 357 359 358 360 338 335 332 330 330 331 330 330 332 332 332 332 350 349 352 349 349 351 349 346 346 345 345 346 345 345 341 340 343 345 341 342 344 342 341 337 334 326 325 323 322
355 356 357 356 355 353 353 351 350 344 331 320 313 314 314 315 330 350 353 353 352 352 354 355 356 356 356 355 355 356 354 353 323 322 326 343 353 354 354 354 354 354 356 360 356 353 333 333 334 334 333 332 334 336 338 336 333 341 351 348 348 346 342 344 343 343 345 346 346 345 341 337 341 343 343 344 342 339 337 341 341 331 324 323 320
349 351 350 348 347 347 346 345 342 342 333 324 313 312 311 312 328 347 345 348 347 347 347 348 350 351 351 351 350 342 340 330 316 318 320 333 344 347 350 350 350 351 354 359 357 353 347 344 346 346 349 345 349 352 352 348 344 350 352 350 350 346 343 343 343 344 341 341 345 346 341 338 337 336 336 338 335 337 339 337 338 340 341 340 335
Wind_Speed
5 5 4 4 3 3 3 3 4 4 3 3 4 3 3 3 3 2 4 1 3 4 3 4 4 5 4 5 8 5 6 6 5 5 5 4 5 7 7 7 6 7 7 7 7 7 8 8 9 10 10 11 11 12 12 12 12 12 11 11 11 11 11 12 12 12 12 11 11 10 10 10 10 10 10 10 11 11 12 12 12 13 13 14 15
5 4 4 3 2 3 3 3 4 3 2 3 3 2 2 2 3 3 3 2 4 4 2 4 6 6 4 5 5 6 6 6 5 5 5 5 4 6 9 8 8 7 7 7 8 8 8 8 9 9 10 10 11 11 12 12 12 11 11 10 10 10 10 11 11 12 12 12 12 11 11 11 10 10 11 11 12 13 13 14 14 14 14 15 15
4 3 3 2 3 2 3 3 3 3 2 3 3 2 2 3 4 3 3 3 3 4 2 5 4 6 4 6 5 6 5 4 5 5 6 4 4 4 8 10 9 9 8 8 8 8 9 9 9 9 10 10 10 11 11 11 11 11 11 10 10 10 10 10 11 11 12 12 11 11 12 12 12 12 12 12 13 13 14 14 15 15 15 15 16
4 2 3 1 2 2 3 3 3 3 2 3 3 2 2 2 4 3 2 1 3 4 2 4 5 5 6 6 5 5 5 3 6 5 5 4 2 3 4 7 11 9 10 9 9 9 8 9 9 10 10 10 11 11 11 11 11 11 11 10 10 10 10 11 10 11 12 11 12 11 12 13 12 12 12 12 12 12 12 14 14 13 14 15 15
3 2 0 2 3 2 3 3 3 2 3 3 2 2 3 2 4 2 2 2 4 4 4 5 6 4 4 6 5 5 4 5 4 4 4 3 3 2 3 2 4 12 11 9 10 9 9 9 9 9 9 9 10 10 11 11 11 11 11 11 11 11 12 12 12 12 12 11 12 12 12 13 12 12 12 12 12 12 13 13 14 13 14 15 16
2 2 2 2 3 2 3 3 3 2 2 2 2 3 3 3 3 2 3 3 4 3 4 4 4 4 5 4 4 3 2 4 4 4 2 2 3 1 2 3 2 2 5 12 9 10 9 8 9 9 8 9 9 10 10 10 10 11 11 12 12 12 13 13 13 12 12 12 12 12 13 13 13 13 14 14 12 12 14 15 15 15 15 15 16
1 1 1 0 2 3 3 3 3 1 2 3 2 3 4 4 4 3 3 4 4 3 4 4 4 6 4 3 4 4 2 5 3 2 3 4 2 2 1 1 1 1 0 1 10 10 8 8 8 8 8 8 9 9 9 9 10 10 11 12 12 12 13 13 13 12 12 13 13 13 13 13 13 13 13 12 14 14 15 15 16 15 15 15 16
1 1 1 1 2 3 4 3 2 1 2 3 2 3 3 4 5 4 3 4 2 5 4 4 4 5 4 4 4 2 2 3 2 2 4 1 3 2 1 1 1 2 2 1 3 6 9 7 7 7 8 8 9 9 9 8 9 9 10 11 11 12 12 13 12 12 12 12 13 13 13 12 12 13 13 13 13 13 13 14 15 14 14 14 14
1 0 1 1 1 3 4 3 2 3 1 2 2 3 4 4 4 4 3 2 1 5 4 3 4 4 5 7 4 3 4 1 3 3 3 1 1 2 0 3 2 3 3 3 2 2 8 7 7 7 8 8 8 8 8 8 8 9 9 9 10 11 11 11 11 11 11 11 12 13 14 13 14 14 14 13 13 12 12 13 13 13 13 12 12
1 1 1 2 2 3 3 3 2 2 1 2 2 4 4 5 4 4 4 3 3 3 4 3 3 4 5 7 2 3 3 4 4 3 2 2 6 2 3 2 1 5 9 7 4 2 2 7 7 8 9 9 8 7 7 7 8 8 8 9 9 10 10 10 10 11 11 12 12 12 12 11 12 13 13 12 12 11 10 11 12 12 12 11 10
2 1 1 1 2 3 3 3 2 2 1 2 4 4 6 6 5 4 2 4 3 4 4 3 2 2 4 6 5 2 1 3 3 1 1 2 5 2 2 1 1 4 8 7 2 1 1 5 4 3 5 11 7 7 7 7 8 8 8 8 9 9 10 9 10 11 11 12 12 12 12 12 12 12 11 11 11 9 9 10 10 11 10 9 6
2 2 1 1 1 2 3 2 3 3 3 4 3 4 5 5 6 6 3 0 2 1 2 1 2 3 3 2 3 2 3 1 1 1 1 2 5 5 3 3 1 2 1 2 4 6 0 3 5 3 4 7 7 7 8 8 8 7 7 7 8 9 8 9 10 10 10 11 12 12 11 10 11 11 11 11 9 7 8 9 8 8 8 7 2
2 1 2 1 1 2 2 3 3 3 3 4 5 5 4 3 2 2 3 3 3 1 4 3 2 2 2 1 3 2 5 2 1 1 1 1 4 3 1 3 2 3 1 5 2 5 4 3 1 3 2 3 4 10 9 8 9 8 6 6 8 8 8 9 9 10 10 11 11 11 11 10 9 9 10 9 7 6 7 7 6 6 6 4 1
1 1 1 1 1 1 2 3 2 3 3 2 3 2 3 4 4 2 1 3 2 4 5 3 1 3 1 2 2 3 4 2 3 3 2 2 2 5 3 3 3 2 3 1 3 3 5 2 2 3 4 4 4 5 3 5 5 4 4 7 7 8 8 9 9 10 10 11 11 11 10 10 9 9 8 7 5 5 6 6 4 5 6 1 2
2 2 2 1 1 1 1 3 3 2 2 2 3 2 2 3 3 5 5 1 2 3 3 6 2 2 3 2 2 2 5 0 1 0 3 2 2 3 2 5 2 5 6 6 3 2 5 5 5 4 6 7 7 5 4 4 4 5 6 5 5 6 8 9 9 9 10 10 10 10 10 9 10 9 8 6 5 4 5 5 3 4 3 2 2
2 2 2 1 1 1 2 2 2 2 2 2 1 1 0 1 4 4 5 5 2 3 2 3 6 3 1 3 1 2 2 1 1 1 2 1 3 2 3 5 2 4 3 6 5 4 3 3 5 6 3 5 6 8 7 5 4 7 4 2 4 7 8 9 9 9 10 10 9 10 10 8 8 8 8 5 4 3 4 4 3 2 3 2 2
2 2 1 2 1 1 1 2 2 1 1 1 1 1 2 2 2 2 3 6 4 3 2 3 4 4 4 2 1 1 4 4 3 3 6 3 2 2 4 5 4 4 4 5 4 5 4 5 3 3 2 4 5 5 9 7 5 6 3 3 9 8 8 8 8 9 10 10 9 10 9 9 8 9 8 5 3 2 3 3 2 2 1 4 3
3 1 2 1 2 1 1 0 2 2 0 2 2 1 2 1 3 3 3 4 5 5 3 2 3 2 1 1 1 4 2 4 5 2 3 5 5 2 2 3 4 3 2 4 3 2 3 4 5 6 6 3 3 4 5 7 6 6 4 6 9 9 9 8 8 10 10 10 10 10 10 10 9 10 8 6 3 1 3 3 2 2 6 3 3
4 3 2 2 1 1 1 0 1 1 1 1 1 2 1 2 2 2 4 4 2 3 3 2 3 2 1 2 1 3 2 3 3 4 2 1 5 8 3 2 5 4 3 5 4 3 3 3 6 5 4 1 2 4 5 5 2 5 2 8 8 9 8 7 7 8 9 9 9 10 11 10 10 10 9 6 3 1 1 2 2 4 6 4 4
2 3 3 3 2 1 1 0 0 1 0 1 0 1 2 2 2 2 2 2 3 3 4 5 3 1 4 5 1 1 2 3 3 5 3 4 2 7 5 5 5 4 4 6 5 4 4 2 4 5 3 2 2 3 6 4 1 3 2 9 9 9 7 8 7 7 7 8 9 9 10 10 11 11 9 8 4 1 1 1 1 7 7 6 5
3 3 3 2 3 1 1 0 0 1 1 2 1 2 2 2 1 1 0 1 2 2 3 3 5 3 2 3 5 4 3 3 2 3 4 2 5 5 6 3 5 2 4 5 5 4 5 4 3 4 3 2 4 2 4 3 4 5 8 8 9 9 8 8 7 7 7 8 9 8 9 10 11 11 10 8 6 2 1 1 2 8 7 7 5
4 4 3 3 3 3 2 1 2 1 2 2 1 0 1 1 1 2 3 3 2 2 3 2 3 4 3 1 2 3 3 4 4 4 3 2 5 6 6 5 5 2 3 4 6 4 4 4 5 3 4 3 3 4 3 3 3 5 7 7 8 7 8 8 8 8 8 9 10 10 10 10 11 11 11 10 7 3 2 2 3 8 7 7 6
2 4 4 4 4 2 3 2 1 1 2 2 2 2 1 1 1 2 1 2 1 2 3 3 3 2 5 2 4 5 1 3 3 3 5 6 5 6 7 5 7 7 2 4 4 3 3 3 4 3 3 3 3 4 4 4 2 7 2 5 5 7 9 8 8 9 8 9 9 10 10 10 10 11 11 10 8 4 2 3 4 8 7 7 6
3 2 4 4 4 3 2 2 2 2 2 2 1 2 2 1 1 1 1 1 2 2 4 4 5 3 5 4 4 4 3 5 4 2 3 4 5 6 6 4 5 5 3 3 2 4 3 3 2 3 3 4 2 4 3 3 6 7 5 8 6 8 8 9 8 9 9 9 9 10 10 10 11 11 11 10 9 6 1 3 4 8 8 7 6
3 4 4 4 3 3 2 1 1 1 1 2 2 1 2 3 1 2 1 2 2 2 3 4 3 4 5 4 4 5 3 2 4 4 4 2 4 5 5 7 6 5 2 5 4 4 2 4 2 3 4 4 3 4 5 3 5 6 10 8 8 7 8 8 9 9 9 8 9 9 9 10 10 10 9 8 8 7 1 3 4 8 8 7 7
4 3 3 3 3 2 2 2 1 1 2 2 2 2 1 3 2 2 4 1 2 3 4 5 4 5 4 4 5 4 4 4 4 4 4 5 4 5 4 5 7 6 2 2 3 5 2 1 2 2 3 4 4 4 5 4 3 5 8 8 9 9 8 8 8 8 8 8 8 9 9 10 10 10 9 8 7 6 2 4 5 7 10 7 7
3 2 2 2 3 3 2 3 2 2 2 3 3 3 2 2 2 3 4 3 3 4 4 5 5 4 5 5 5 6 5 4 5 5 4 4 4 5 4 6 5 5 5 3 3 3 4 3 3 3 3 3 4 2 4 4 4 1 8 8 5 11 9 7 7 8 8 8 8 8 8 9 9 10 10 9 7 6 3 4 6 7 10 8 7
2 3 4 4 4 4 4 4 3 3 4 3 4 3 2 3 2 3 4 4 3 4 4 5 5 5 5 5 5 6 5 6 5 5 4 4 4 4 4 4 5 6 5 5 4 3 1 4 2 2 3 3 4 2 1 7 4 9 10 5 5 5 10 7 7 7 7 8 8 8 9 9 9 10 10 9 8 6 3 3 7 7 10 9 9
4 4 5 4 4 4 4 4 3 3 4 4 4 3 3 4 4 3 4 5 4 4 5 5 6 6 6 5 5 5 5 5 6 6 4 3 5 4 4 5 4 5 6 6 4 4 6 3 2 3 5 3 3 4 2 3 5 6 6 5 6 4 7 5 5 7 8 8 8 8 8 9 10 10 11 10 9 7 2 2 7 8 10 10 10
5 3 3 4 4 4 4 4 4 4 3 3 3 4 3 4 4 4 5 4 4 4 5 6 6 5 6 6 5 5 5 6 6 5 4 3 5 5 4 4 3 5 6 7 6 6 6 4 4 4 5 4 4 4 1 3 8 5 6 5 5 5 6 2 6 8 8 8 9 9 9 10 11 11 11 11 10 8 4 1 8 9 11 11 10
4 4 4 5 5 5 5 5 5 5 5 5 4 4 4 4 4 5 5 4 4 5 5 5 6 5 5 6 5 6 6 6 6 7 5 4 5 5 5 4 5 5 6 6 7 4 7 6 5 5 4 2 4 5 4 5 5 3 5 5 4 4 5 4 7 9 8 8 8 10 9 10 10 11 11 11 10 9 5 1 7 9 10 10 10
6 6 6 6 5 5 6 6 5 5 5 5 5 4 4 4 4 5 1 1 4 5 5 5 5 4 4 5 6 5 6 6 6 6 6 5 6 6 5 5 5 6 5 6 8 7 5 6 7 6 4 4 3 4 4 6 6 8 4 4 3 8 7 7 9 9 8 8 9 10 10 11 11 12 12 12 11 10 8 0 7 9 10 10 9
5 6 6 6 5 5 5 4 5 3 3 4 3 4 4 4 5 5 5 4 4 5 5 5 5 6 5 5 6 6 6 7 7 7 6 6 6 6 5 6 6 5 5 5 7 7 6 5 5 6 5 4 5 3 5 5 5 4 6 3 4 4 4 2 7 10 8 9 9 10 11 11 11 12 12 12 12 11 10 8 3 7 7 9 8
6 7 6 6 7 6 6 5 5 5 4 5 6 5 5 5 6 6 6 6 5 5 5 5 5 5 5 6 6 7 7 7 7 8 7 7 7 6 6 6 6 6 4 5 6 6 7 6 6 5 6 4 6 2 4 6 5 4 6 5 5 2 4 4 3 8 9 9 9 10 10 11 11 12 11 12 12 12 11 9 8 2 5 6 6
8 7 7 7 5 5 5 4 4 5 5 6 6 6 5 5 6 6 5 4 4 5 5 6 6 5 6 6 7 6 6 6 6 7 7 7 7 7 7 6 7 7 6 6 6 7 8 7 5 7 5 3 5 5 4 4 5 3 4 6 5 5 4 2 2 7 9 10 10 9 10 10 11 11 12 13 12 13 12 11 8 6 3 4 6
7 7 6 6 6 5 5 5 5 5 5 6 6 6 6 6 6 6 6 5 6 5 6 6 6 5 6 6 6 6 6 7 7 7 7 7 7 7 7 6 6 7 6 6 6 6 7 8 6 7 6 5 5 5 5 4 6 3 5 5 5 4 6 4 0 5 10 13 12 11 9 9 10 10 12 13 13 13 14 13 11 8 5 5 5
7 6 7 6 6 6 6 7 6 6 6 6 6 6 6 6 6 6 6 6 6 6 6 6 6 6 6 7 7 7 7 7 7 7 7 8 7 7 8 7 7 6 6 6 6 7 7 8 7 6 6 6 6 5 4 5 5 4 2 2 5 4 4 6 2 7 12 12 12 14 11 10 9 10 11 12 14 15 15 14 13 11 8 6 5
6 6 6 7 7 7 6 6 6 6 5 5 5 5 6 6 7 7 6 7 7 7 7 7 7 7 7 7 7 7 7 7 8 7 7 8 8 8 8 7 7 7 7 8 7 8 8 8 8 8 7 7 6 4 4 4 5 5 3 3 3 0 4 4 4 2 6 7 6 8 12 12 11 11 11 11 11 14 15 15 14 13 10 7 5
7 7 7 7 6 6 6 7 7 7 6 6 5 5 6 6 7 7 7 7 7 7 7 7 7 7 8 8 7 7 8 8 8 8 8 8 8 8 8 8 8 8 9 8 8 8 9 8 8 8 7 7 6 5 4 3 4 4 4 3 4 0 0 3 3 3 3 3 6 8 7 7 7 8 10 12 12 10 14 16 14 13 11 9 7
8 8 8 7 7 7 7 7 7 6 7 6 6 6 5 7 6 8 8 7 7 8 7 7 7 8 8 8 8 8 8 8 7 7 7 7 7 8 7 7 7 7 8 9 8 9 6 8 7 5 1 3 7 10 6 5 5 4 3 3 3 3 2 1 2 3 3 5 3 6 6 9 8 12 15 14 14 14 11 11 15 15 13 10 9
7 7 8 7 7 7 6 6 6 7 7 8 3 5 6 5 6 6 8 10 9 10 11 10 8 7 7 8 9 8 7 7 7 6 8 7 8 9 8 8 7 6 6 5 7 6 9 7 7 4 5 7 4 6 10 7 5 4 1 2 3 3 2 2 2 1 3 3 2 4 1 3 3 4 5 6 7 7 12 13 10 13 13 11 10
6 5 5 6 7 7 7 7 8 6 8 4 2 7 7 3 6 4 6 5 7 8 8 8 11 10 9 9 8 11 8 8 10 10 10 10 8 9 8 7 7 7 4 6 4 5 7 7 9 7 6 5 5 8 10 5 6 3 4 3 3 2 2 4 1 2 1 5 3 1 3 1 1 2 4 6 6 8 8 9 9 9 10 11 11
6 6 6 7 7 7 7 7 6 8 2 6 10 9 7 6 5 5 6 6 6 8 8 8 9 9 9 10 10 5 8 12 8 10 10 9 10 10 10 10 11 10 9 8 7 8 4 7 8 5 5 5 8 10 9 10 6 3 3 2 3 2 3 3 3 2 1 2 2 2 1 1 0 2 4 5 7 7 7 8 8 9 10 11 11
6 6 7 6 5 5 5 6 7 2 8 8 10 8 7 6 7 6 6 6 6 6 7 7 8 8 9 9 9 9 8 4 2 5 9 10 8 9 10 10 11 12 12 11 10 8 10 8 8 8 6 5 6 5 9 8 7 2 3 3 3 3 4 4 4 4 3 1 2 3 2 2 1 2 4 5 7 7 7 7 8 9 10 11 11
3 3 3 4 6 6 5 4 5 5 7 11 9 8 6 5 5 7 6 6 7 8 8 7 7 7 7 7 8 8 7 8 8 8 7 6 8 11 11 11 12 12 12 12 12 12 11 11 11 11 8 6 6 5 3 6 10 7 5 5 4 4 3 4 5 3 3 1 3 4 2 1 2 3 3 4 5 6 7 8 8 9 10 10 10
4 4 5 5 4 2 2 0 2 7 8 9 8 9 8 8 7 8 5 5 7 8 7 7 8 7 7 7 7 7 7 7 6 6 5 7 7 7 8 9 9 11 12 15 15 13 10 9 11 11 10 9 6 6 3 4 6 8 8 6 3 4 4 4 3 1 0 3 3 3 2 3 3 2 3 4 6 7 7 6 7 9 10 10 11
3 2 6 4 3 3 2 2 2 6 7 7 7 7 8 8 9 9 5 5 6 7 7 7 7 7 6 6 6 7 7 7 6 5 7 8 8 8 9 10 10 11 11 10 9 5 2 3 5 8 9 10 7 6 3 2 2 3 4 10 7 5 4 3 3 3 4 4 3 3 4 2 1 2 3 4 6 7 7 7 9 9 10 11 11
3 4 3 5 3 3 3 2 2 6 7 9 7 6 7 9 10 6 6 5 6 7 7 6 8 9 8 7 7 7 7 7 5 5 6 7 10 10 11 12 12 12 12 1 11 10 5 5 3 1 3 4 9 5 1 2 3 5 8 9 5 4 4 5 4 3 4 3 1 3 3 2 1 5 3 2 3 5 6 7 8 10 10 10 11
3 3 5 4 2 1 1 0 1 7 7 9 9 9 9 11 8 5 6 6 6 7 7 6 6 8 8 7 8 9 9 9 10 10 7 8 11 13 13 13 12 11 12 4 8 11 12 11 9 6 5 5 2 5 12 10 4 4 6 7 6 6 6 6 6 5 5 4 2 2 4 3 2 2 3 2 0 0 4 6 8 9 9 9 9
3 2 1 3 5 6 6 6 5 5 8 8 8 9 10 11 9 5 6 6 7 7 7 7 7 7 8 12 6 8 10 8 13 12 12 9 11 13 14 14 14 15 12 10 4 4 8 6 7 6 5 4 6 8 9 12 9 4 7 7 6 5 5 7 5 4 2 1 2 2 1 3 2 3 3 3 2 4 2 2 4 9 11 11 9
7 4 4 5 5 6 6 7 8 7 6 6 8 9 10 12 9 5 4 5 5 5 5 6 6 7 6 5 8 7 5 8 10 9 10 9 10 12 13 14 15 15 13 11 6 3 3 3 3 3 4 4 3 3 2 8 9 8 8 8 5 8 7 5 6 1 1 4 6 2 2 2 2 2 4 3 5 4 1 4 2 2 2 4 6
Wind_Direction
120 109 103 93 90 88 95 104 96 102 119 108 94 90 74 81 80 89 81 58 94 94 121 116 122 97 96 105 95 81 87 85 89 90 87 101 102 134 172 189 208 219 227 244 254 260 266 268 273 277 280 282 284 287 290 293 295 297 297 298 298 298 298 299 301 301 300 300 298 295 294 293 289 284 282 280 281 280 278 275 272 269 268 266 268
106 103 92 86 86 99 98 94 101 97 101 89 76 75 98 93 79 62 68 62 85 91 68 70 83 89 73 81 87 103 97 93 89 99 107 106 111 128 172 188 207 215 228 239 247 257 261 269 272 277 279 280 283 286 290 291 294 296 297 297 298 295 295 294 294 296 296 296 296 294 292 290 283 276 271 271 269 268 267 267 265 264 263 265 265
96 91 94 100 111 90 86 101 101 91 72 82 80 49 45 48 46 38 54 66 74 84 76 98 94 88 88 93 106 95 88 105 121 118 106 95 100 129 155 184 200 210 222 230 241 248 256 265 271 275 279 280 282 285 288 289 292 294 297 297 294 293 291 287 285 285 286 287 288 288 288 285 282 275 270 266 265 263 263 262 263 265 266 266 266
60 53 70 71 77 88 91 85 81 86 61 54 36 22 45 38 60 52 62 110 112 102 97 91 93 104 105 88 90 95 99 97 90 84 87 98 130 121 135 167 187 203 213 225 231 238 250 255 264 268 272 276 279 283 284 285 287 291 294 294 290 289 287 285 282 281 282 282 282 283 284 282 280 278 275 272 269 268 267 268 266 263 264 267 271
71 46 105 78 73 60 99 78 83 58 60 28 36 353 50 40 64 83 68 116 97 117 141 105 83 59 79 93 88 99 111 109 112 98 82 129 128 123 100 105 150 185 201 213 222 237 240 247 255 261 266 272 274 276 278 281 284 287 289 287 286 284 287 289 288 284 283 282 281 281 282 282 283 285 287 287 286 287 287 284 281 276 278 275 273
54 61 322 92 101 97 74 87 77 63 86 37 19 36 41 29 39 67 87 74 90 63 79 86 100 110 87 97 91 83 122 100 99 101 131 94 84 122 140 137 152 135 172 189 211 220 234 242 249 257 264 267 273 274 277 278 282 285 282 282 282 281 286 291 289 288 287 286 285 282 281 283 284 286 290 290 288 289 292 294 291 289 287 286 286
47 339 94 9 123 93 85 78 56 25 62 63 338 31 31 22 32 30 83 100 90 72 52 65 91 93 70 45 65 76 61 85 29 128 122 76 299 79 76 85 68 131 193 167 181 207 213 229 245 255 262 270 271 276 275 278 280 283 281 282 283 285 290 295 295 296 293 291 288 283 279 278 278 280 281 281 286 289 291 291 291 291 291 291 296
18 335 316 105 90 95 85 77 71 70 44 59 340 40 21 37 22 22 38 61 135 111 106 92 68 87 89 118 98 133 83 84 151 70 72 93 47 69 68 74 91 47 356 28 7 146 188 215 237 247 260 262 266 270 278 279 281 280 282 286 290 293 293 294 296 296 293 288 284 282 276 273 272 279 279 283 285 287 290 291 294 296 297 301 305
140 284 250 129 105 109 105 85 73 65 11 53 32 33 9 46 33 19 31 342 20 104 111 134 124 104 121 87 71 352 73 78 66 76 63 102 225 65 217 114 110 185 208 118 171 28 179 201 218 243 252 255 261 265 269 274 271 277 282 284 289 289 290 291 295 295 294 287 281 282 280 276 280 281 282 282 283 285 289 294 299 304 308 311 314
142 129 339 47 68 65 73 62 68 59 28 72 33 25 16 19 31 32 8 343 22 44 71 41 47 97 90 100 105 135 133 94 57 291 142 138 126 197 274 12 60 53 26 348 34 337 324 180 195 239 238 240 247 248 255 262 263 271 274 280 285 284 289 295 298 302 302 303 297 286 280 275 275 278 279 279 280 285 292 297 303 313 318 322 324
126 131 199 152 122 88 78 62 63 65 31 58 56 35 7 12 3 42 349 11 8 19 40 338 57 34 87 106 128 135 65 102 174 114 3 27 45 261 155 68 346 128 142 236 28 192 171 23 311 259 222 202 222 240 243 251 265 264 273 276 274 287 291 297 307 311 313 310 304 300 296 290 283 281 280 279 281 290 295 298 311 321 330 330 336
130 118 99 25 74 93 76 71 64 68 42 38 41 44 15 11 15 353 4 9 97 15 49 296 84 56 58 151 116 127 83 350 203 145 139 209 78 315 330 120 189 23 52 60 81 269 102 175 223 271 331 173 198 229 239 251 260 259 256 262 276 283 290 304 313 315 313 310 309 309 308 300 291 283 281 278 283 295 297 304 320 329 334 345 6
135 158 121 121 88 78 79 53 54 57 48 35 48 24 24 336 15 318 338 24 47 121 79 17 41 140 148 104 146 186 140 212 3 217 163 122 152 204 138 251 156 162 173 104 235 301 291 223 257 284 253 332 243 208 224 242 249 257 255 273 286 301 300 308 310 312 316 314 315 316 314 309 299 286 282 281 291 295 299 308 326 331 333 344 44
142 147 132 161 129 118 90 66 60 61 44 51 51 40 24 357 351 329 10 24 45 20 51 286 142 50 13 121 132 145 33 269 269 82 269 145 213 172 190 280 349 20 357 6 240 256 276 327 333 322 343 302 304 322 293 250 226 170 290 302 313 317 313 312 310 310 313 316 320 323 323 316 304 291 286 284 292 296 302 307 326 334 329 355 73
158 171 163 173 117 76 111 95 55 57 48 55 60 40 28 8 343 19 337 86 71 81 47 344 30 61 113 272 80 219 149 254 249 73 314 14 257 88 335 297 39 16 2 308 305 344 353 352 317 2 345 334 316 326 319 290 25 338 298 306 314 321 319 317 314 313 314 318 325 329 328 322 314 308 301 308 311 306 303 306 330 339 3 111 78
156 177 138 123 109 67 62 84 96 65 61 50 45 91 325 45 14 26 343 308 68 64 39 60 352 2 11 7 44 332 144 149 264 96 224 170 328 346 53 336 344 110 282 283 333 342 339 311 45 339 37 318 337 319 310 336 307 264 264 314 2 336 324 321 317 318 317 318 330 334 334 331 322 314 313 308 310 313 298 306 335 310 323 136 58
155 155 136 115 87 89 68 80 83 40 70 159 192 28 12 39 62 356 42 335 352 21 44 20 66 11 354 319 329 191 4 4 324 63 325 304 71 328 104 257 301 59 301 306 303 320 41 307 1 277 83 38 331 340 323 316 350 328 318 87 3 338 327 321 317 313 316 323 332 333 334 335 328 321 320 317 317 321 298 308 354 306 37 120 61
169 177 115 122 119 92 76 356 108 116 40 12 20 226 172 324 63 352 8 37 346 329 4 103 50 84 128 145 85 338 336 348 301 77 242 294 307 249 207 292 323 290 202 272 317 313 309 33 321 303 67 16 348 310 308 316 354 330 341 9 348 332 331 324 315 319 330 332 338 335 333 334 331 328 327 327 335 335 303 311 33 33 118 97 72
170 171 150 143 146 106 102 231 81 141 147 185 208 292 83 63 19 28 13 17 337 331 324 357 47 288 41 39 58 307 333 323 350 317 329 348 339 320 336 324 316 295 328 320 314 341 342 15 280 313 102 31 338 337 311 311 51 331 83 13 348 339 338 330 321 330 337 336 344 340 340 340 336 332 329 324 335 324 286 318 32 115 127 107 82
177 160 203 177 188 174 139 127 307 59 139 193 289 13 17 61 55 32 7 7 337 1 338 342 328 61 30 329 352 56 324 280 328 339 309 317 25 274 291 300 316 316 337 322 325 352 330 284 324 317 30 36 275 5 305 325 28 292 38 22 347 351 350 347 347 343 341 340 347 348 346 345 340 334 328 326 327 322 236 286 74 133 126 112 101
206 198 188 206 205 196 189 229 234 193 221 198 214 77 7 20 3 275 223 347 0 17 321 342 314 3 24 348 341 318 306 309 244 247 301 345 315 298 293 314 289 338 348 311 337 340 335 348 341 291 17 22 334 328 297 334 354 299 52 19 358 359 359 2 4 354 347 339 348 348 346 343 341 337 336 332 326 315 219 227 125 140 131 119 113
172 202 189 213 211 202 215 207 225 203 277 37 344 312 196 186 258 353 10 348 351 301 303 333 309 332 322 9 307 294 305 300 304 309 317 311 279 303 314 325 320 356 316 349 336 339 333 334 300 4 3 337 335 310 340 319 344 343 43 19 7 359 358 11 5 355 354 347 350 351 347 342 338 335 340 345 331 317 197 197 139 140 136 128 123
206 165 202 203 189 209 237 201 268 119 249 247 235 268 228 181 141 102 269 313 324 333 280 248 270 286 284 232 274 281 295 300 306 335 319 312 324 311 306 336 329 310 357 351 311 316 325 315 314 24 352 329 356 342 345 326 349 39 4 35 33 358 3 10 0 357 352 349 350 349 345 338 333 331 342 343 342 329 198 177 152 144 142 134 131
221 203 206 201 173 207 220 233 221 246 220 244 295 311 311 330 192 245 211 211 282 282 313 316 296 256 268 280 264 277 326 286 309 345 299 322 320 314 301 316 308 311 345 315 286 307 311 305 342 4 353 350 17 344 312 296 78 33 317 86 58 16 12 1 358 356 350 349 346 343 340 335 330 332 340 337 337 345 207 185 159 152 146 141 137
219 218 205 209 182 201 234 243 233 256 311 330 309 291 317 301 346 279 306 270 252 278 272 286 297 309 306 307 299 291 277 316 312 290 276 294 275 286 313 329 306 293 354 327 329 298 347 330 357 1 356 336 9 356 337 337 47 31 314 118 67 57 17 4 358 356 352 345 340 338 334 329 333 335 337 335 338 350 344 188 174 156 154 148 143
210 211 241 209 211 203 213 222 222 254 249 251 269 295 323 301 297 291 275 291 307 277 266 270 268 263 268 288 290 297 293 266 265 267 310 287 293 305 317 307 300 311 304 284 291 310 218 3 308 60 355 344 348 355 333 346 90 34 322 303 104 66 46 7 357 351 353 346 344 346 336 339 345 347 345 342 346 354 32 195 186 162 159 153 144
206 199 223 220 223 223 219 246 215 231 244 244 243 232 239 254 274 289 301 282 270 290 289 280 284 290 281 274 286 284 298 299 289 294 279 298 302 302 321 310 310 303 302 309 261 233 322 299 305 27 19 333 323 2 341 340 74 93 301 295 77 79 42 17 353 356 357 350 349 347 344 345 349 351 353 352 355 354 12 201 189 172 160 154 144
199 203 199 203 210 222 217 224 227 231 228 231 247 253 226 248 260 270 264 264 259 262 270 279 277 279 279 284 284 289 292 295 307 294 296 295 312 314 293 288 303 309 321 301 323 299 219 288 48 3 346 335 317 308 199 273 49 341 268 310 334 67 57 8 2 1 5 1 360 357 356 350 353 353 355 351 356 358 356 205 187 181 161 154 145
227 198 212 192 212 218 231 248 205 231 238 230 239 231 232 248 244 237 255 269 274 268 274 279 281 283 284 285 285 286 292 299 290 291 291 306 296 302 300 301 318 303 303 311 301 313 305 332 343 323 316 299 290 312 281 306 50 331 325 327 330 27 63 359 23 20 13 17 12 7 356 353 359 2 359 352 351 355 349 225 183 180 163 155 149
213 227 195 197 199 218 238 238 253 250 255 248 227 232 232 249 250 251 265 278 274 274 272 278 281 280 282 289 294 297 298 287 278 284 288 266 274 272 285 285 278 284 301 298 299 299 302 308 314 154 240 280 277 276 285 297 102 304 325 323 330 26 100 321 63 37 25 22 19 14 6 4 2 2 359 354 351 348 344 216 181 175 170 158 155
197 213 220 217 205 201 213 233 217 227 228 233 230 246 246 253 257 256 238 238 256 265 267 259 265 274 290 290 291 286 293 294 298 285 287 268 265 270 278 289 283 282 281 282 287 317 303 300 293 319 305 290 308 326 322 312 131 354 313 325 343 27 166 104 79 59 33 29 24 22 17 9 6 2 359 358 355 355 356 298 176 176 176 167 164
201 199 213 224 217 216 206 212 223 223 219 220 228 225 239 257 269 268 265 223 255 262 274 283 282 286 286 281 281 283 287 290 286 288 276 265 270 278 278 280 277 271 270 270 282 283 289 303 315 298 276 334 303 293 335 301 123 171 326 298 334 253 220 130 81 72 46 37 35 29 26 21 16 12 5 2 3 3 358 250 179 178 179 173 170
211 203 206 214 217 221 240 244 238 224 231 258 249 250 244 243 244 254 272 265 262 263 258 269 276 274 269 277 284 284 287 283 286 281 280 274 265 257 262 263 265 263 259 266 274 285 285 301 302 290 313 312 296 329 297 305 314 354 301 327 302 318 330 350 101 77 60 51 44 38 33 28 24 21 15 11 13 13 8 358 226 179 178 175 171
208 211 211 211 204 216 222 214 223 228 216 216 242 236 235 234 244 237 224 221 232 253 265 268 269 271 269 264 269 277 272 269 275 281 282 280 273 276 275 275 275 279 264 267 273 280 289 282 282 301 292 278 284 302 319 303 329 316 327 327 311 309 344 329 92 86 76 62 53 46 41 35 33 32 28 23 21 22 21 15 356 222 170 174 154
199 216 207 216 208 206 223 216 205 221 217 229 229 238 240 241 248 260 272 259 249 255 248 246 255 259 260 260 265 267 269 277 281 282 285 287 291 293 290 288 285 281 278 257 262 276 285 290 284 274 261 267 289 302 299 297 297 276 304 320 323 344 333 322 348 100 99 95 79 62 47 43 40 39 37 36 32 31 32 30 32 16 168 145 143
206 197 214 213 195 197 216 214 215 230 222 224 232 223 221 234 245 246 249 253 258 253 253 261 262 265 270 270 269 277 290 291 284 284 284 283 286 284 284 282 281 283 282 279 254 269 279 280 280 282 294 297 281 285 290 290 287 320 318 323 308 333 331 317 64 110 115 106 103 86 71 55 47 42 44 43 39 38 38 40 43 46 73 133 141
220 201 189 209 201 197 217 213 218 225 226 225 223 233 234 230 232 241 241 238 240 245 253 258 263 268 273 272 275 275 274 275 278 279 283 288 287 288 285 286 279 277 273 273 269 260 265 267 274 268 271 271 275 278 290 297 303 275 211 289 319 334 319 311 318 104 129 140 123 118 99 78 63 54 50 47 46 44 42 42 41 42 52 74 107
216 223 200 202 197 202 219 226 226 222 230 235 229 245 245 233 224 229 230 233 237 244 249 249 251 249 256 264 268 269 270 272 281 287 290 288 283 277 282 284 287 284 281 268 263 254 253 261 263 273 260 270 263 266 288 284 292 304 301 301 248 131 304 320 345 2 156 168 163 138 134 127 106 79 57 56 54 53 51 44 42 39 36 42 76
215 221 212 207 208 208 207 222 227 222 229 241 246 243 250 247 243 240 245 237 239 245 250 253 254 253 253 253 254 256 264 271 277 283 288 291 290 295 290 287 283 283 275 276 267 261 254 257 263 260 280 263 256 266 262 252 277 272 291 307 310 268 248 320 320 329 338 111 44 45 77 64 88 94 89 67 59 59 64 52 41 39 37 33 31
216 222 224 206 205 213 218 219 225 224 223 235 239 243 257 276 252 235 235 248 256 254 252 256 262 264 263 263 267 263 258 255 257 265 272 275 285 285 292 294 293 288 295 288 303 290 320 303 301 340 24 322 319 298 273 237 244 240 250 288 292 313 313 269 324 330 352 319 194 150 124 138 141 133 127 105 82 59 31 65 53 36 30 30 37
220 217 221 227 223 225 221 225 230 233 233 229 269 257 225 223 305 322 325 314 327 333 309 289 263 257 262 265 262 272 273 278 285 280 281 300 291 287 290 290 283 285 273 333 297 323 301 293 309 330 335 298 284 280 289 259 243 278 299 295 301 266 283 267 194 263 318 294 301 348 28 317 31 5 36 48 46 50 58 31 45 43 25 26 30
228 235 237 234 235 229 230 224 227 231 239 94 101 45 29 331 254 256 240 218 214 220 240 268 281 270 260 254 253 244 273 258 240 229 240 247 246 270 283 283 278 273 275 254 263 256 265 271 259 251 260 257 263 264 241 261 260 235 238 223 265 292 300 290 236 265 344 316 342 46 302 309 22 81 46 49 63 53 45 42 30 16 19 27 33
229 215 224 228 232 232 233 235 232 236 49 61 48 52 50 8 295 262 264 260 241 239 249 247 253 271 275 277 282 243 196 246 241 256 255 246 240 241 253 259 270 275 277 266 245 258 216 258 265 261 260 282 289 280 295 294 295 239 285 284 283 299 277 281 283 182 184 313 287 252 201 316 127 97 63 64 57 49 57 51 21 30 30 34 35
211 224 222 215 221 235 234 237 236 200 87 43 47 44 35 18 355 307 276 275 279 276 269 277 276 274 276 277 277 281 270 283 27 242 229 221 223 243 250 259 258 253 253 265 278 277 272 271 270 259 236 218 247 287 294 278 263 253 241 282 276 275 276 271 264 265 106 305 284 258 215 170 122 92 92 94 85 69 61 41 40 38 42 38 37
206 193 198 195 227 235 243 242 258 96 82 41 26 27 28 357 356 312 292 295 291 286 283 275 276 275 276 279 278 286 291 297 260 262 256 238 230 238 252 254 253 249 247 244 243 256 276 285 291 287 264 236 239 258 237 306 320 315 311 264 250 257 270 270 277 274 144 214 256 273 291 91 184 140 116 81 85 90 94 61 40 46 43 43 40
217 230 235 235 222 238 262 231 88 79 69 36 11 8 5 349 335 322 283 293 286 290 294 286 283 285 280 281 284 280 288 290 291 278 268 273 279 270 260 253 255 250 234 228 234 236 244 268 275 280 303 283 240 225 277 315 306 298 286 288 279 268 264 269 276 246 149 248 272 308 284 227 212 183 119 116 111 103 82 68 62 58 53 46 44
155 238 270 234 208 196 179 202 158 87 70 31 18 358 0 339 330 299 295 286 297 292 290 288 284 288 291 284 282 283 285 281 277 288 281 287 288 282 277 273 263 259 260 256 244 211 120 354 354 326 327 322 282 251 231 252 160 223 275 280 289 286 287 261 231 229 217 176 272 265 262 265 246 194 149 153 139 118 109 90 70 70 61 54 49
186 165 219 254 216 207 205 169 185 104 76 43 20 4 357 343 314 288 287 294 286 289 284 304 324 307 297 289 282 280 276 278 344 351 275 285 286 281 277 271 267 265 262 152 90 103 122 118 113 99 25 25 329 315 271 184 223 229 235 245 239 251 242 231 246 193 244 164 228 261 283 252 266 271 142 157 163 142 122 106 92 80 74 65 58
175 174 207 215 202 226 154 175 42 83 71 35 21 14 6 352 316 311 297 291 287 286 297 290 264 266 279 298 302 291 298 290 30 1 350 289 281 280 277 275 272 269 265 191 133 131 138 138 139 135 141 138 80 338 301 275 244 307 309 283 256 247 223 227 222 220 225 177 142 345 284 249 233 259 172 169 286 162 166 129 118 111 97 84 77
164 171 105 80 66 50 52 57 70 94 74 48 29 24 14 4 331 305 298 290 287 285 285 292 290 287 289 297 319 308 310 331 15 359 353 319 282 276 274 273 272 267 262 255 215 146 124 146 148 154 162 170 197 198 232 269 277 263 254 270 288 289 299 268 246 236 140 185 123 2 244 250 162 256 241 174 193 233 113 113 119 130 126 115 108
64 50 74 88 83 73 69 74 61 76 83 76 46 33 24 16 357 355 347 315 308 330 314 304 308 299 301 314 77 39 28 12 358 353 338 323 295 290 291 285 277 271 274 274 236 184 163 135 151 169 174 193 224 235 241 249 251 251 256 274 291 290 263 268 291 141 248 221 89 89 266 187 255 166 272 229 235 152 123 129 138 156 178 135 143